[Iaude] MPEC Q203: 2020 QA6 [a=1.81,e=0.43,i=0.5,H=26.2]

mpec at marsden.cfa.harvard.edu mpec at marsden.cfa.harvard.edu
Wed Aug 26 21:16:23 EDT 2020


M.P.E.C. 2020-Q203                              Issued 2020 August 27, 01:15 UT

     The Minor Planet Electronic Circulars contain information on unusual
         minor planets and routine data on comets.  They are published
    on behalf of Division F of the International Astronomical Union by the
          Minor Planet Center, Smithsonian Astrophysical Observatory,
                          Cambridge, MA 02138, U.S.A.

             Prepared using the Tamkin Foundation Computer Network

                              MPC at CFA.HARVARD.EDU
            URL https://www.minorplanetcenter.net/    ISSN 1523-6714

                                    2020 QA6                                    


Observations:
     K20Q06A  C2020 08 23.36788420 09 12.757-12 19 42.85         19.17GVEQ203F52
     K20Q06A* C2020 08 26.25765 21 39 33.43 -01 59 25.2          18.3 GVEQ203703
     K20Q06A  C2020 08 26.26307 21 39 44.97 -01 57 54.4                VEQ203703
     K20Q06A  C2020 08 26.26849 21 39 56.49 -01 56 21.8          18.6 GVEQ203703
     K20Q06A  C2020 08 26.33417 21 42 18.08 -01 37 47.9          17.7 GVEQ203I52
     K20Q06A  C2020 08 26.33436 21 42 18.50 -01 37 44.5          17.5 GVEQ203I52
     K20Q06A  C2020 08 26.33454 21 42 18.90 -01 37 41.4          17.5 GVEQ203I52
     K20Q06A  C2020 08 26.33473 21 42 19.30 -01 37 38.3          17.6 GVEQ203I52
     K20Q06A  C2020 08 26.39268 21 44 26.26 -01 21 05.9          17.6 GVEQ203I52
     K20Q06A  C2020 08 26.39287 21 44 26.68 -01 21 02.6          17.7 GVEQ203I52
     K20Q06A  C2020 08 26.39306 21 44 27.10 -01 20 59.7          17.4 GVEQ203I52
     K20Q06A  C2020 08 26.39325 21 44 27.53 -01 20 56.2          17.7 GVEQ203I52
     K20Q06A KC2020 08 26.58340 21 52 14.58 -00 16 30.3          17.8 VqEQ203E23
     K20Q06A KC2020 08 26.59174 21 52 33.14 -00 14 03.7          17.8 VqEQ203E23
     K20Q06A KC2020 08 26.60007 21 52 51.74 -00 11 37.2          17.9 VqEQ203E23
     K20Q06A KC2020 08 26.60905 21 53 11.83 -00 08 59.2          18.1 VqEQ203E23
     K20Q06A KC2020 08 26.82137622 02 16.26 +00 42 48.8          17.7 GVEQ203104
     K20Q06A KC2020 08 26.82819122 02 30.93 +00 44 43.3          18.1 GVEQ203L01
     K20Q06A KC2020 08 26.82878822 02 32.33 +00 44 54.0          18.1 GVEQ203L01
     K20Q06A KC2020 08 26.82938522 02 33.74 +00 45 04.8          18.1 GVEQ203L01
     K20Q06A KC2020 08 26.83038122 02 36.07 +00 45 22.7          18.2 GVEQ203L01
     K20Q06A KC2020 08 26.83106122 02 39.06 +00 45 42.8          17.6 GVEQ203104
     K20Q06A KC2020 08 26.83399922 02 49.24 +00 46 52.0          17.4 GVEQ203B49
     K20Q06A KC2020 08 26.83572322 02 53.30 +00 47 22.9          17.5 GVEQ203B49
     K20Q06A KC2020 08 26.83944422 03 02.08 +00 48 29.4          17.5 GVEQ203B49
     K20Q06A KC2020 08 26.84461822 03 14.31 +00 50 02.1          17.8 GVEQ203B49
     K20Q06A KC2020 08 26.84492522 03 15.06 +00 50 07.8          18.2 GVEQ203B49
     K20Q06A KC2020 08 26.84550 22 03 14.55 +00 50 02.0          17.7 GVEQ203K19
     K20Q06A KC2020 08 26.84767422 03 18.09 +00 50 39.9          17.4 GVEQ203K63
     K20Q06A KC2020 08 26.84933 22 03 23.58 +00 51 10.7          17.6 GVEQ203K19
     K20Q06A KC2020 08 26.84954422 03 22.49 +00 51 14.0          18.0 GVEQ203K63
     K20Q06A KC2020 08 26.85072522 03 25.21 +00 51 35.0          17.2 GVEQ203K63
     K20Q06A KC2020 08 26.85150 22 03 30.78 +00 51 51.5          18.1 GVEQ203958
     K20Q06A KC2020 08 26.85191022 03 27.99 +00 51 56.8          17.7 GVEQ203K63
     K20Q06A KC2020 08 26.85309722 03 30.78 +00 52 17.6          17.6 GVEQ203K63
     K20Q06A KC2020 08 26.85358222 03 35.40 +00 52 43.7          18.5 GVEQ203B49
     K20Q06A KC2020 08 26.85416 22 03 28.95 +00 52 12.1          18.6 GoEQ203K88
     K20Q06A KC2020 08 26.85446622 03 34.00 +00 52 42.5          17.6 GVEQ203K63
     K20Q06A KC2020 08 26.85615 22 03 33.57 +00 52 47.8          17.8 GoEQ203K88
     K20Q06A KC2020 08 26.85625 22 03 42.03 +00 53 15.8          17.1 GVEQ203958
     K20Q06A KC2020 08 26.85743 22 03 36.54 +00 53 11.1          17.8 GoEQ203K88
     K20Q06A KC2020 08 26.85872 22 03 39.58 +00 53 34.0          17.9 GoEQ203K88
     K20Q06A KC2020 08 26.86104 22 03 53.34 +00 54 42.3          17.4 GVEQ203958
     K20Q06A KC2020 08 26.86935122 04 12.38 +00 57 05.8          17.8 GVEQ203I93
     K20Q06A KC2020 08 26.87168422 04 17.91 +00 57 47.7          18.1 GVEQ203I93
     K20Q06A KC2020 08 26.87401822 04 23.38 +00 58 29.6          18.2 GVEQ203I93
     K20Q06A KC2020 08 26.87910122 04 33.68 +00 59 20.5          17.8 GVEQ203J69
     K20Q06A KC2020 08 26.87952522 04 34.32 +00 59 24.9                VEQ203Z80
     K20Q06A KC2020 08 26.88234322 04 41.36 +01 00 18.8          17.9 GVEQ203J69
     K20Q06A KC2020 08 26.88254222 04 32.34 +01 00 36.4          18.0 GVEQ203L18
     K20Q06A KC2020 08 26.88335822 04 34.24 +01 00 51.3          18.3 GVEQ203L18
     K20Q06A KC2020 08 26.88498922 04 37.94 +01 01 20.2          18.5 GVEQ203L18
     K20Q06A KC2020 08 26.88531522 04 47.98 +01 01 08.8          18.4 GVEQ203Z80
     K20Q06A KC2020 08 26.88557822 04 49.02 +01 01 17.5          17.9 GVEQ203J69
     K20Q06A KC2020 08 26.88881422 04 56.66 +01 02 15.2          17.8 GVEQ203J69
     K20Q06A KC2020 08 26.89089222 05 01.18 +01 02 49.2          18.2 GVEQ203Z80
     K20Q06A KC2020 08 26.96364022 07 50.38 +01 25 30.5          17.5 GVEQ203C95
     K20Q06A KC2020 08 26.96860022 08 01.99 +01 27 00.3          18.0 GVEQ203C95
     K20Q06A KC2020 08 26.97371522 08 13.88 +01 28 32.9          17.5 GVEQ203C95

Observer details:
104 San Marcello Pistoiese.  Observers P. Bacci, M. Maestripieri.  Measurers
    P. Bacci, L. Tesi, G. Fagioli.  0.60-m reflector + CCD.
703 Catalina Sky Survey.  Observer R. A. Kowalski.  Measurers E. J.
    Christensen, G. A. Farneth, D. C. Fuls, A. R. Gibbs, A. D. Grauer, H.
    Groeller, R. A. Kowalski, S. M. Larson, G. J. Leonard, T. A. Pruyne, D.
    Rankin, R. L. Seaman, F. C. Shelly, K. W. Wierzchos.  0.68-m Schmidt + 10K
    CCD.
958 Observatoire de Dax.  Observer P. Dupouy.  0.32-m f/4.1 Schmidt-
    Cassegrain.
B49 Paus Observatory, Sabadell.  Observer J. Camarasa.  0.30-m f/4 reflector +
    CCD.
C95 SATINO Remote Observatory, Haute Provence.  Observer J. Jahn.  0.60-m
    f/3.2 Newtonian reflector + CCD.
E23 Arcadia.  Observer A. Hidas.  0.35-m f/1.9 reflector + CCD.
F52 Pan-STARRS 2, Haleakala.  Observers J. Bulger, K. Chambers, T. Dukes, T.
    Lowe, A. Schultz, M. Willman.  Measurers S. Chastel, M. Huber, Y.
    Ramanjooloo, R. Wainscoat, R. Weryk.  1.8-m Ritchey-Chretien + CCD.
I52 Steward Observatory, Mt. Lemmon Station.  Observer G. J. Leonard.
    Measurers E. J. Christensen, G. A. Farneth, D. C. Fuls, A. R. Gibbs, A. D.
    Grauer, H. Groeller, R. A. Kowalski, S. M. Larson, G. J. Leonard, T. A.
    Pruyne, D. Rankin, R. L. Seaman, F. C. Shelly, K. W. Wierzchos.  1.0-m
    reflector + CCD.
I93 St Pardon de Conques.  Observer F. Losse.  0.40-m f/3.7 reflector + CCD.
J69 North Observatory, Clanfield.  Observer D. Briggs.  0.41-m f/4.5 Newtonian
    reflector + CCD.
K19 PASTIS Observatory, Banon.  Observer C. Demeautis.  0.16-m f/3.3 reflector
    + CCD.
K63 G. Pascoli Observatory, Castelvecchio Pascoli.  Observer R. Bacci.  0.4-m
    f/3.2 Newtonian reflector + CCD.
K88 GINOP-KHK, Piszkesteto.  Observer K. Sarneczky.  Measurers K.
    Sarneczky, A. Pal, Z. Kuli, B. Csak.  0.60-m Schmidt + CCD.
L01 Visnjan Observatory, Tican.  Observer K. Korlevic.  1.0-m f/2.9 reflector
    + CCD.
L18 QOS Observatory, Zalistci.  Observer S. V. Rischenko.  Measurer A. M.
    Kozhukhov.  0.50-m f/3.8 reflector + CCD.
Z80 Northolt Branch Observatory.  Observer G. Wells.  Measurers G. Wells, D.
    Bamberger.  0.25-m f/8.0 Ritchey-Chretien + CCD.

Orbital elements:
2020 QA6                                                 Earth MOID = 0.0158 AU
Epoch 2020 May 31.0 TT = JDT 2459000.5                  Veres
M 321.42782              (2000.0)            P               Q
n   0.40512720     Peri.   33.01611     +0.95170063     +0.30696232
a   1.8088745      Node   309.10633     -0.28343020     +0.87044507
e   0.4342468      Incl.    0.46724     -0.11803910     +0.38483700
P   2.43           H   26.2           G   0.15           U   6
Residuals in seconds of arc
200823 F52  0.1-  0.3+    200826 L01  0.1-  0.2+    200826 K88  0.4-  0.0
200826 703  1.3+  0.3-    200826 104  1.2+  0.2+    200826 K88  0.1+  0.2-
200826 703  0.2+  0.9-    200826 B49  0.5-  0.2+    200826 958  0.1+  0.2+
200826 703  1.3-  0.2+    200826 B49  0.7-  0.2+    200826 I93  0.2-  0.1+
200826 I52  0.2-  0.2-    200826 B49  0.7-  0.0     200826 I93  0.4+  0.0
200826 I52  0.1-  0.1-    200826 B49  0.3-  0.2-    200826 I93  0.1+  0.1-
200826 I52  0.0   0.1-    200826 B49  0.1+  0.0     200826 J69  0.4-  0.1-
200826 I52  0.1-  0.2-    200826 K19  0.2-  0.4+    200826 Z80  0.1-  0.3+
200826 I52  0.0   0.0     200826 K63  0.3+  0.5-    200826 J69  0.2-  0.1-
200826 I52  0.0   0.0     200826 K19  0.1+  0.4+    200826 L18  0.3+  0.3-
200826 I52  0.0   0.4-    200826 K63  0.6+  0.0     200826 L18  0.3+  0.1-
200826 I52  0.1+  0.1-    200826 K63  0.1-  0.2-    200826 L18  1.2-  0.5-
200826 E23  0.3+  0.0     200826 958  0.5-  0.7+    200826 Z80  0.5-  0.0
200826 E23  0.1+  0.1+    200826 K63  0.0   0.3+    200826 J69  0.0   0.4+
200826 E23  0.3+  0.2+    200826 K63  0.2+  0.2-    200826 J69  0.0   0.1-
200826 E23  0.6+  0.3+    200826 B49  0.5-  0.5+    200826 Z80  0.2-  0.1+
200826 104  1.0+  0.3-    200826 K88  0.3+  0.3-    200826 C95  0.4-  0.1-
200826 L01  0.1-  0.1+    200826 K63  0.4+  0.2+    200826 C95  0.4+  0.0
200826 L01  0.1-  0.1+    200826 K88  0.1-  0.3-    200826 C95  0.0   0.1+
200826 L01  0.0   0.2+    200826 958  0.0   0.3-

Ephemeris:
2020 QA6                 a,e,i = 1.81, 0.43, 0                   q = 1.0234
Date    TT    R. A. (2000) Decl.     Delta      r    Elong.  Phase     V
2020 07 28    17 53 00.9 -24 03 48   0.1065  1.1027   143.3    33.4    22.9
...
2020 08 12    18 14 33.6 -22 10 30   0.05587 1.0528   133.9    43.9    21.7
...
2020 08 20    19 10 06.5 -17 54 36   0.03098 1.0356   139.3    39.5    20.3
...
2020 08 26    21 29 39.3 -03 05 51   0.01735 1.0274   165.6    14.1    18.3
2020 08 27    22 09 17.2 +01 42 11   0.01646 1.0265   167.7    12.1    18.1
2020 08 28    22 51 55.9 +06 46 09   0.01624 1.0256   162.4    17.4    18.2
...
2020 09 03    02 07 10.9 +23 14 16   0.02635 1.0231   122.6    56.2    20.4
...
2020 09 11    03 28 34.2 +25 24 46   0.04992 1.0266   112.2    65.2    22.1
...
2020 09 26    04 01 44.8 +25 00 06   0.09626 1.0535   119.6    55.8    23.3

M. P. C. Staff               (C) Copyright 2020 MPC           M.P.E.C. 2020-Q203




More information about the Iaude mailing list